ALOS-4 (DAICHI-4)

Last updated on Mon Jun 22 2026 00:02:52 GMT+0000 (Coordinated Universal Time)

1 60182U 24123A 26172.55465269 .00000995 00000+0 14012-3 0 9992 2 60182 97.9248 269.6674 0001631 96.6537 263.4860 14.79476344106527
UTC large
Height (km)
Speed (km/s)
/
Latitude / Longitude
Inclination (degrees)
Orbital Period (minutes)
Azimuth
Elevation
Range (km)
Doppler Factor

Next 0 passes for location: London (51.5072 / 0.1276)

No passes found over London.
ALOS-4 (DAICHI-4)